Regional Weather Roundup
Issued by NWS Jackson, KY

Home | Current Version | Previous Version | Graphics & Text | Print | Product List | Glossary On
Versions: 1 2 3 4 5 6 7 8 9 10 11 12 13 14 15 16 17 18 19 20 21 22 23 24 25 26 27
000
ASUS43 KJKL 271310
RWRJKL

EAST KENTUCKY HOURLY WEATHER ROUNDUP
NATIONAL WEATHER SERVICE JACKSON KY
900 AM EDT SAT AUG 27 2016

NOTE: "FAIR" INDICATES FEW OR NO CLOUDS BELOW 12,000 FEET WITH
NO SIGNIFICANT WEATHER AND/OR OBSTRUCTIONS TO VISIBILITY.

* THESE REPORTS ARE NOT UNDER NWS QUALITY CONTROL AND MAY NOT
  REPORT WEATHER SUCH AS PRECIPITATION AND FOG.

KYZ079-080-083-085-087-088-110-112-115-119-120-271400
...EASTERN KENTUCKY...

CITY           SKY/WX    TMP DP  RH WIND       PRES   REMARKS
JACKSON        SUNNY     76  71  85 CALM      30.16R
LONDON         SUNNY     75  69  81 CALM      30.15R
SOMERSET*      SUNNY     75  72  88 CALM      30.14R
MONTICELLO*    SUNNY    N/A N/A N/A NE10      30.14R
WILLIAMSBURG*  MOSUNNY   72  72 100 CALM      30.15R
MIDDLESBORO*   FOG       69  69 100 CALM      30.17S VSB 1/4
HARLAN APT*    CLOUDY    70  66  88 CALM      30.18S
PIKE CO APT*   FOG       71  71 100 SW3       30.17R VSB<1/4
BIG SANDY APT* SUNNY     76  73  91 CALM      30.16R
MOREHEAD APT*  SUNNY     79  72  78 VRB3      30.15S
$$

KYZ035-036-041-042-044-050-067-078-099-271400
...CENTRAL KENTUCKY...

CITY           SKY/WX    TMP DP  RH WIND       PRES   REMARKS
MT STERLING*   SUNNY     79  72  78 SE6       30.15R
FLEMING/MASON* SUNNY     75  73  92 CALM      30.15R
DANVILLE*      MOSUNNY   77  70  78 CALM      30.14R
LEXINGTON      SUNNY     78  71  79 CALM      30.13R
FRANKFORT      SUNNY     77  70  79 E3        30.11R
LOUISVILLE     CLOUDY    80  73  79 NE6       30.10R
LEBANON*         N/A     77  72  83 CALM      30.12R
GLASGOW*       SUNNY     76  75  96 CALM      30.11R
BOWLING GREEN  CLOUDY    77  71  82 CALM      30.10R
$$

KYZ091>093-OHZ055-061-077-WVZ005-015-034-035-042-271400
...SOUTHERN OHIO/WEST VIRGINIA...

CITY           SKY/WX    TMP DP  RH WIND       PRES   REMARKS
COVINGTON      PTSUNNY   78  74  87 SE5       30.12R
COLUMBUS       PTSUNNY   75  67  76 E7        30.14R
DAYTON         PTSUNNY   74  69  85 SE3       30.15R
WILMINGTON     PTSUNNY   74  72  93 E3        30.14R
HUNTINGTON     SUNNY     76  73  91 E5        30.13R
CHARLESTON     MOSUNNY   73  71  93 CALM      30.15R
PINEVILLE*     MOSUNNY   71  68  90 MISG      30.25S
BECKLEY        SUNNY     75  67  76 E7        30.25R
BLUEFIELD      FOG       67  67 100 VRB5      30.27S VSB 1/4
LOGAN CO APT*    N/A     75  72  88 CALM      30.17S
$$

VAZ002-007-008-TNZ017-027-036-066-071-271400
...SOUTHWEST VIRGINIA/EAST TENNESSEE...

CITY           SKY/WX    TMP DP  RH WIND       PRES   REMARKS
WISE*          SUNNY     77  59  53 CALM      30.26R
JONESVILLE*      N/A     73  68  83 CALM      30.20R
ABINGDON*      SUNNY     74  69  82 E7        30.22S
BRISTOL        MOSUNNY   73  68  84 NE3       30.19R
MORRISTOWN*    SUNNY     77  72  83 VRB5      30.15R
SEVIERVILLE*   SUNNY     75  66  73 CALM      30.14R
KNOXVILLE      SUNNY     78  71  79 CALM      30.13R
OAK RIDGE      SUNNY     77  72  84 CALM      30.15S
CROSSVILLE     SUNNY     77  69  76 CALM      30.18R
NASHVILLE      MOSUNNY   77  72  84 CALM      30.10R
$$

...KEY TO REMARKS...
VSB - VISIBILITY IN MILES
WCI - WIND CHILL INDEX
HX  - HEAT INDEX

$$




USA.gov is the U.S. government's official web portal to all federal, state and local government web resources and services.